Regional Weather Roundup
Issued by NWS

Home | Current Version | Previous Version | Text Only | Print | Product List | Glossary On
Versions: 1 2 3 4 5 6 7 8 9 10 11 12 13 14 15 16 17 18 19 20 21 22 23 24 25 26 27 28 29 30 31 32 33 34 35 36 37 38 39 40 41 42 43 44 45 46 47 48 49 50
554
ASUS43 KMPX 222001
RWRMN
WEATHER ROUNDUP FOR MINNESOTA
NATIONAL WEATHER SERVICE TWIN CITIES/CHANHASSEN MN
300 PM CDT FRI MAY 22 2015


NOTE: "FAIR" INDICATES FEW OR NO CLOUDS BELOW 12,000 FEET WITH NO
SIGNIFICANT WEATHER AND/OR OBSTRUCTIONS TO VISIBILITY. N/A MEANS
CURRENT SKY AND/OR WEATHER CONDITIONS ARE NOT AVAILABLE.

MNZ060>063-068>070-222100-
   Twin Cities Metro

CITY           SKY/WX    TMP DP  RH WIND       PRES   REMARKS
TWIN CITIES    MOSUNNY   72  33  24 SE7       30.21F
ST PAUL        SUNNY     71  36  27 E3        30.22S
CRYSTAL        SUNNY     73  35  25 S7        30.20F
BLAINE         MOSUNNY   72  34  25 CALM      30.22S
LAKEVILLE      SUNNY     70  36  28 SE3       30.22R
EDEN PRAIRIE   SUNNY     72  37  28 VRB5      30.21S
SOUTH ST PAUL  SUNNY     72  33  24 E3        30.21S
LAKE ELMO      FAIR      70  37  30 W3        30.22F
$$
MNZ001>005-007-008-013>017-022>024-027-028-222100-
   Northwest Minnesota

CITY           SKY/WX    TMP DP  RH WIND       PRES   REMARKS
BEMIDJI        SUNNY     73  35  24 E9        30.17S
HALLOCK        SUNNY     77  37  24 SW17      30.12S
ROSEAU         SUNNY     73  41  31 SW10G23   30.13S
WARROAD        SUNNY     73  43  33 W13G18    30.13S
THIEF RVR FALL SUNNY     73  34  23 SW10G17   30.17S
CROOKSTON      SUNNY     75  36  23 S6G17     30.16F
FOSSTON        SUNNY     73  34  23 W5        30.18F
DETROIT LAKES  SUNNY     70  32  24 SW5       30.20F
MOORHEAD       SUNNY     72  39  30 SW7       30.18F
PARK RAPIDS    SUNNY     75  32  20 VRB5      30.18F
MAHNOMEN       FAIR      72  35  25 SW6       30.18F
$$
MNZ006-009>011-018-025>026-222100-
   North Central Minnesota

CITY           SKY/WX    TMP DP  RH WIND       PRES   REMARKS
BAUDETTE       SUNNY     74  36  25 SW8       30.13S
FLAG ISLAND    SUNNY     59  46  63 S14       30.08F
INTL FALLS     SUNNY     72  30  21 VRB3      30.13F
WASKISH        SUNNY     70  39  32 CALM      30.16F
BIG FORK       SUNNY     75  34  22 W6        30.16F
LONGVILLE      SUNNY     72  30  21 W3        30.19S
GRAND RAPIDS   SUNNY     70  34  26 W7        30.19F
CRANE LAKE     SUNNY     70  28  21 NE5       30.16S
COOK           SUNNY     70  32  24 N3        30.16F
WALKER         FAIR      70  32  24 E5        30.18S
$$
MNZ012-019>021-037-222100-
   Northeast Minnesota

CITY           SKY/WX    TMP DP  RH WIND       PRES   REMARKS
DULUTH         SUNNY     71  32  23 NW8       30.19S
ELY            SUNNY     66  27  22 E3        30.15F
HIBBING        SUNNY     71  31  22 VRB7      30.17F
EVELETH        SUNNY     68  32  26 SW8       30.18S
DULUTH HARBOR  SUNNY     48  39  71 E6        30.21F
TWO HARBORS    SUNNY     66  41  39 S10       30.18S
SILVER BAY     SUNNY     63  32  31 S9        30.18S
GRAND MARAIS     N/A     44  34  67 E5        30.23F
G MARAIS ARPRT SUNNY     55  23  28 S7        30.20F
$$
MNZ029>031-032-039>041-046>048-054>057-064-222100-
   West Central Minnesota

CITY           SKY/WX    TMP DP  RH WIND       PRES   REMARKS
FERGUS FALLS   SUNNY     72  34  25 S5        30.19F
WHEATON        SUNNY     72  30  21 SE7       30.20F
MORRIS         SUNNY     73  34  23 CALM      30.19F
ALEXANDRIA     SUNNY     70  34  26 SW8       30.22F
ELBOW LAKE     FAIR      71  37  28 S7        30.19S
WADENA         SUNNY     72  37  28 CALM      30.20S
GLENWOOD       SUNNY     72  36  26 SE6       30.22S
APPLETON       SUNNY     75  28  17 SE5       30.18F
BENSON         SUNNY     73  30  20 W5        30.20F
ORTONVILLE     SUNNY     72  36  26 CALM      30.18F
MADISON        SUNNY     73  28  19 W3        30.18F
WILLMAR        FAIR      73  37  27 E3        30.21F
$$
MNZ033>034-036-042>043-049>051-058-059-222100-
   Central Minnesota

CITY           SKY/WX    TMP DP  RH WIND       PRES   REMARKS
ST CLOUD       SUNNY     72  34  24 VRB3      30.21F
SAUK CENTRE    FAIR      71  35  27 S3        30.21F
PAYNESVILLE    SUNNY     68  33  26 E5        30.22S
AITKIN         SUNNY     72  27  18 W3        30.19S
PINE RIVER     SUNNY     72  39  30 NW5       30.22S
BRAINERD       SUNNY     71  35  26 VRB5      30.20F
STAPLES        SUNNY     72  34  25 S7        30.20F
LONG PRAIRIE   FAIR      70  34  26 S3        30.21F
LITTLE FALLS   SUNNY     68  30  24 W3        30.21F
LITCHFIELD     SUNNY     72  36  26 CALM      30.22S
BUFFALO        SUNNY     70  33  25 W7        30.23S
MAPLE LAKE     SUNNY     72  40  31 SE3       30.22F
$$
MNZ037-044-045-052-053-222100-
   East Central Minnesota

CITY           SKY/WX    TMP DP  RH WIND       PRES   REMARKS
PRINCETON      SUNNY     73  36  25 W7        30.21F
MORA           SUNNY     68  36  30 CALM      30.22F
CAMBRIDGE      SUNNY     73  46  38 CALM      30.20S
RUSH CITY      SUNNY     69  35  28 CALM      30.22S
MOOSE LAKE     SUNNY     72  36  26 SW8       30.18S
HINCKLEY       FAIR      70  37  30 CALM      30.21S
CLOQUET        SUNNY     70  27  19 S8        30.18F
MCGREGOR       SUNNY     70  32  24 CALM      30.20S
$$
MNZ071>073-080-081-089-090-097-098-222100-
   Southwest Minnesota

CITY           SKY/WX    TMP DP  RH WIND       PRES   REMARKS
MONTEVIDEO     SUNNY     77  34  20 CALM      30.19F
GRANITE FALLS  SUNNY     74  31  20 CALM      30.20F
CANBY          SUNNY     73  32  22 CALM      30.19F
MARSHALL       FAIR      73  32  21 SE3       30.18F
REDWOOD FALLS  SUNNY     75  31  19 S7        30.19F
OLIVIA         SUNNY     72  34  25 SE5       30.19F
PIPESTONE      PTSUNNY   72  32  23 SE2       30.19F
WINDOM         MOSUNNY   73  25  16 CALM      30.19F
WORTHINGTON    CLOUDY    73  30  20 SW8       30.19S
JACKSON        PTSUNNY   73  28  19 CALM      30.20F
TRACY          MOSUNNY   75  34  22 E3        30.20S
SLAYTON        PTSUNNY   73  33  23 CALM      30.20F
$$
MNZ065>067-074>077-082>085-091>093-222100-
   South Central Minnesota

CITY           SKY/WX    TMP DP  RH WIND       PRES   REMARKS
MANKATO        SUNNY     72  34  25 NE6       30.22S
NEW ULM        SUNNY     72  34  25 E5        30.21S
ST JAMES       MOSUNNY   73  34  23 CALM      30.20F
FAIRMONT       MOSUNNY   73  28  19 E7        30.19F
GLENCOE        SUNNY     72  37  27 CALM      30.20F
FARIBAULT      SUNNY     72  36  26 CALM      30.22S
OWATONNA       SUNNY     73  30  20 CALM      30.21F
WASECA         SUNNY     72  32  23 N6        30.22F
ALBERT LEA     SUNNY     73  34  23 SW5       30.21S
$$
MNZ078>079-086>088-094>096-222100-
   Southeast Minnesota

CITY           SKY/WX    TMP DP  RH WIND       PRES   REMARKS
ROCHESTER      SUNNY     70  37  29 E3        30.23S
RED WING       SUNNY     73  30  20 W5        30.20F
STANTON        SUNNY     73  31  21 SE5       30.20S
DODGE CENTER   SUNNY     72  32  23 CALM      30.22F
WINONA         SUNNY     72  36  26 NE3       30.21S
AUSTIN         SUNNY     70  37  30 E7        30.21F
PRESTON        SUNNY     70  31  24 SE3       30.22F
$$
ABBREVIATIONS USED IN REMARKS
   TC - TEMPERATURES IN CELSIUS
  WCI - WIND CHILL INDEX
   HX - HEAT INDEX
  VSB - VISIBILITY
$$



USA.gov is the U.S. government's official web portal to all federal, state and local government web resources and services.